Regional Weather Roundup
Issued by NWS Little Rock, AR

Home | Current Version | Previous Version | Graphics & Text | Print | Product List | Glossary On
Versions: 1 2 3 4 5 6 7 8 9 10 11 12 13 14 15 16 17 18 19 20 21 22 23 24 25 26 27 28 29 30 31 32 33 34 35 36 37 38 39 40 41 42 43 44 45 46 47 48 49 50
000
ASUS44 KLZK 211905
RWRLZK

WEATHER ROUNDUP FOR ARKANSAS
NATIONAL WEATHER SERVICE LITTLE ROCK AR
200 PM CDT THU AUG 21 2014

NOTE: "FAIR" INDICATES FEW OR NO CLOUDS BELOW 12,000 FEET WITH NO
SIGNIFICANT WEATHER AND/OR OBSTRUCTIONS TO VISIBILITY.

ARZ001-003-010-029-212000-
NORTHWEST ARKANSAS

CITY           SKY/WX    TMP DP  RH WIND       PRES   REMARKS
FAYETTEVILLE   SUNNY     89  70  53 S13G21    30.06F HX  94
FORT SMITH     SUNNY     91  70  49 S12G21    30.02F HX  96
HARRISON       SUNNY     90  66  45 SW9G21    30.07F HX  92
BENTONVILLE    SUNNY     91  70  49 SW10G21   30.06F HX  97
ROGERS         SUNNY     91  67  44 S15       30.06F HX  94
SILOAM SPGS    SUNNY     90  70  51 S18       30.06S HX  95
HIGHFILL       SUNNY     92  68  45 S13G21    30.05F HX  96
SPRINGDALE     MOSUNNY   90  70  51 SW12G20   30.07F HX  95
$$

ARZ004-005-016-212000-
NORTH CENTRAL ARKANSAS

CITY           SKY/WX    TMP DP  RH WIND       PRES   REMARKS
BATESVILLE     SUNNY     95  72  46 SW15G21   30.05F HX 103
FLIPPIN        SUNNY     93  66  40 S10G16    30.04F HX  96
MTN HOME       SUNNY     95  68  41 SW8       30.04F HX  99
$$

ARZ040-041-212000-
WEST CENTRAL ARKANSAS

CITY           SKY/WX    TMP DP  RH WIND       PRES   REMARKS
MENA           MOSUNNY   90  73  58 CALM      30.10F HX  98
MOUNT IDA      MOSUNNY   87  71  58 VRB5      30.08F HX  93
$$

ARZ009-017-025-026-028-212000-
NORTHEAST ARKANSAS

CITY           SKY/WX    TMP DP  RH WIND       PRES   REMARKS
CORNING        LGT RAIN  93  75  55 SW15      30.03F HX 104
JONESBORO      SUNNY     93  72  50 S17G23    30.05F HX 101
NEWPORT        SUNNY     95  74  50 S10       30.06F HX 105
WALNUT RIDGE   SUNNY     93  68  43 S14G21    30.02F HX  97
BLYTHEVILLE    MOSUNNY   90  76  63 SW10      30.07F HX 101
$$

ARZ022-023-033-042-044-212000-
CENTRAL ARKANSAS

CITY           SKY/WX    TMP DP  RH WIND       PRES   REMARKS
LITTLE ROCK    MOSUNNY   91  69  48 SW15      30.08F HX  96
N LITTLE ROCK  MOSUNNY   91  73  55 SW9G16    30.08F HX  99
JACKSONVILLE   SUNNY     92  72  51 S8G16     30.07F HX  99
SEARCY           N/A     93  73  52 CALM        N/A  HX 101
HOT SPRINGS    MOSUNNY   87  72  60 SW7       30.10F HX  93
RUSSELLVILLE   SUNNY     92  70  48 VRB6      30.06S HX  97
CLINTON        FAIR      95  70  43 SW8       30.06F HAZE    HX 101
$$

ARZ036-212000-
EAST ARKANSAS

CITY           SKY/WX    TMP DP  RH WIND       PRES   REMARKS
WEST MEMPHIS     N/A     92  75  57 MISG      30.07F HX 103
$$

ARZ050-053-066-070-073-212000-
SOUTHWEST ARKANSAS

CITY           SKY/WX    TMP DP  RH WIND       PRES   REMARKS
ARKADELPHIA    FAIR      90  75  61 CALM      30.09F HX 100
CAMDEN         MOSUNNY   91  72  52 W7        30.08F HX  98
TEXARKANA      MOSUNNY   90  74  59 SW7       30.07F HX  99
EL DORADO      MOSUNNY   89  73  59 SW8       30.10F HX  97
DE QUEEN       PTSUNNY   88  75  65 S8        30.05F HX  97
$$

ARZ056-057-069-212000-
SOUTHEAST ARKANSAS

CITY           SKY/WX    TMP DP  RH WIND       PRES   REMARKS
PINE BLUFF     MOSUNNY   91  72  53 SW7       30.09S HX  98
STUTTGART      MOSUNNY   91  73  55 SW14      30.10S HX 100
MONTICELLO     PTSUNNY   92  73  53 SW9       30.09F HX 100

$$





USA.gov is the U.S. government's official web portal to all federal, state and local government web resources and services.